Cartersville, GA

10:17 AM EDT on July 20, 2017 (GMT -0400)
Cartersville

Weather History for KVPC - February, 2013

Change the Weather History Date:

Wednesday, February 6, 2013

  Actual Average Record
Temperature  
Mean Temperature 50 °F 43 °F  
Max Temperature 64 °F 54 °F 68 °F (2008)
Min Temperature 37 °F 32 °F 19 °F (2009)
Degree Days  
Heating Degree Days 14 22  
Month to date heating degree days 135  
Since 1 July heating degree days 2176  
Moisture  
Dew Point 40 °F    
Average Humidity 86    
Maximum Humidity 100    
Minimum Humidity 31    
Precipitation  
Precipitation 0.00 in 0.15 in 1.87 in (2004)
Month to date precipitation 0.98  
Year to date precipitation 5.58  
Snow  
Snow 0.00 in - - ()
Month to date snowfall  
Since 1 July snowfall  
Snow Depth -    
Sea Level Pressure  
Sea Level Pressure 30.12 in    
Wind  
Wind Speed 0 mph (ENE)    
Max Wind Speed 5 mph    
Max Gust Speed -    
Visibility 4 miles    
Events Fog    
T = Trace of Precipitation, MM = Missing Value Source: NWS Daily Summary

Daily Weather History Graph

Daily Weather History Graph

Search for Another Location

Airport or City:

Trip Planner

Search our weather history database for the weather conditions in past years. The results will help you decide how hot, cold, wet, or windy it might be!

Date:

Astronomy

Feb. 06, 2013 Rise Set
Actual Time 7:32 AM EST 6:14 PM EST
Civil Twilight 7:06 AM EST 6:40 PM EST
Nautical Twilight 6:36 AM EST 7:10 PM EST
Astronomical Twilight 6:07 AM EST 7:40 PM EST
Moon 4:10 AM EST (2/6) 2:37 PM EST (2/6)
Length of Visible Light 11h 34m
Length of Day
10h 42m
Waning Crescent, 17% of the Moon is Illuminated
Feb 6
Waning Crescent
Feb 10
New
Feb 17
First Quarter
Feb 25
Full
Mar 4
Last Quarter

Hourly Weather History & Observations

Time (EST) Temp. Dew Point Humidity Pressure Visibility Wind Dir Wind Speed Gust Speed Precip Events Conditions
12:08 AM 39.2 °F 39.2 °F 100% 30.06 in 3.0 mi Calm Calm - N/A   Partly Cloudy
12:17 AM 41.0 °F 41.0 °F 100% 30.07 in 2.5 mi Calm Calm - N/A   Mostly Cloudy
12:20 AM 41.0 °F 41.0 °F 100% 30.06 in 0.8 mi Calm Calm - N/A   Mist
12:30 AM 39.2 °F 39.2 °F 100% 30.06 in 0.2 mi Calm Calm - N/A Fog Fog
12:53 AM 39.9 °F 39.9 °F 100% 30.06 in 0.2 mi Calm Calm - N/A Fog Fog
1:02 AM 39.2 °F 39.2 °F 100% 30.07 in 1.0 mi Calm Calm - N/A   Mist
1:17 AM 39.2 °F 39.2 °F 100% 30.07 in 0.2 mi Calm Calm - N/A Fog Fog
1:38 AM 37.4 °F 37.4 °F 100% 30.07 in 1.0 mi Calm Calm - N/A   Mist
1:48 AM 37.4 °F 37.4 °F 100% 30.07 in 0.2 mi Calm Calm - N/A Fog Fog
1:53 AM 37.0 °F 37.0 °F 100% 30.06 in 0.2 mi Calm Calm - N/A Fog Fog
2:53 AM 39.9 °F 39.9 °F 100% 30.07 in 0.2 mi Calm Calm - N/A Fog Fog
3:53 AM 39.9 °F 39.9 °F 100% 30.08 in 0.2 mi Calm Calm - N/A Fog Fog
4:53 AM 41.0 °F 41.0 °F 100% 30.09 in 0.2 mi Calm Calm - N/A Fog Fog
5:53 AM 41.0 °F 41.0 °F 100% 30.11 in 0.2 mi Calm Calm - N/A Fog Fog
6:21 AM 41.0 °F 41.0 °F 100% 30.14 in 0.5 mi Calm Calm - N/A Fog Fog
7:53 AM 39.9 °F 39.9 °F 100% 30.16 in 0.2 mi Calm Calm - N/A Fog Fog
8:53 AM 41.0 °F 41.0 °F 100% 30.18 in 0.2 mi Calm Calm - N/A Fog Fog
9:53 AM 42.1 °F 42.1 °F 100% 30.20 in 0.2 mi Calm Calm - N/A Fog Fog
10:30 AM 44.6 °F 44.6 °F 100% 30.21 in 1.8 mi Calm Calm - N/A   Overcast
10:32 AM 44.6 °F 44.6 °F 100% 30.21 in 3.0 mi Calm Calm - N/A   Overcast
10:53 AM 45.0 °F 44.1 °F 97% 30.21 in 6.0 mi Calm Calm - N/A   Mostly Cloudy
11:04 AM 46.4 °F 44.6 °F 93% 30.21 in 8.0 mi Calm Calm - N/A   Scattered Clouds
11:53 AM 53.1 °F 44.1 °F 71% 30.19 in 10.0 mi Calm Calm - N/A   Clear
12:53 PM 59.0 °F 41.0 °F 51% 30.18 in 10.0 mi Calm Calm - N/A   Clear
1:53 PM 62.1 °F 39.9 °F 44% 30.15 in 10.0 mi Variable 4.6 mph - N/A   Clear
2:53 PM 63.0 °F 37.0 °F 38% 30.13 in 10.0 mi Variable 3.5 mph - N/A   Clear
3:53 PM 64.9 °F 35.1 °F 33% 30.12 in 10.0 mi Variable 3.5 mph - N/A   Clear
4:53 PM 64.9 °F 33.1 °F 31% 30.11 in 10.0 mi North 3.5 mph - N/A   Clear
5:53 PM 57.0 °F 37.9 °F 49% 30.11 in 10.0 mi Calm Calm - N/A   Clear
6:53 PM 48.0 °F 39.0 °F 71% 30.11 in 10.0 mi SE 3.5 mph - N/A   Clear
7:53 PM 46.0 °F 37.9 °F 73% 30.14 in 10.0 mi Calm Calm - N/A   Clear
8:53 PM - - N/A% 30.15 in - North - - N/A   Clear
9:53 PM - - N/A% 30.15 in - North - - N/A   Clear
10:53 PM - - N/A% 30.13 in - North - - N/A   Clear
11:53 PM - - N/A% 30.13 in - North - - N/A   Clear